TimeMST,TemperatureF,Dew PointF,Humidity,Sea Level PressureIn,VisibilityMPH,Wind Direction,Wind SpeedMPH,Gust SpeedMPH,PrecipitationIn,Events,Conditions,WindDirDegrees,DateUTC
12:53 AM,26.1,23.0,88,29.84,5.0,North,8.1,-,N/A,,Overcast,350,2013-12-20 07:53:00
1:53 AM,25.0,23.0,92,29.82,4.0,SE,8.1,-,N/A,,Overcast,140,2013-12-20 08:53:00
2:53 AM,21.0,19.9,96,29.86,2.5,NE,3.5,-,N/A,,Overcast,40,2013-12-20 09:53:00
3:01 AM,21.9,21.0,96,29.78,3.0,Calm,Calm,-,N/A,,Overcast,0,2013-12-20 10:01:00
3:17 AM,21.9,19.9,92,29.78,2.5,Calm,Calm,-,N/A,,Overcast,0,2013-12-20 10:17:00
3:53 AM,19.9,19.0,96,29.85,2.0,Calm,Calm,-,N/A,,Overcast,0,2013-12-20 10:53:00
4:29 AM,21.0,21.0,100,29.77,3.0,ESE,3.5,-,N/A,,Overcast,110,2013-12-20 11:29:00
4:37 AM,21.0,19.9,96,29.77,2.5,Calm,Calm,-,N/A,,Overcast,0,2013-12-20 11:37:00
4:53 AM,21.9,21.0,96,29.84,2.5,East,5.8,-,N/A,,Overcast,90,2013-12-20 11:53:00
5:00 AM,21.9,19.9,92,29.76,3.0,Calm,Calm,-,N/A,,Overcast,0,2013-12-20 12:00:00
5:53 AM,23.0,21.0,92,29.82,3.0,ENE,3.5,-,N/A,,Overcast,70,2013-12-20 12:53:00
6:53 AM,23.0,21.0,92,29.83,3.0,Calm,Calm,-,N/A,,Overcast,0,2013-12-20 13:53:00
7:43 AM,23.0,21.9,96,29.77,1.8,Calm,Calm,-,N/A,,Overcast,0,2013-12-20 14:43:00
7:53 AM,23.0,21.0,92,29.85,1.5,Calm,Calm,-,N/A,,Overcast,0,2013-12-20 14:53:00
8:53 AM,24.1,21.9,91,29.87,1.5,Calm,Calm,-,N/A,,Overcast,0,2013-12-20 15:53:00
9:38 AM,26.1,24.1,92,29.80,2.0,Calm,Calm,-,N/A,,Overcast,0,2013-12-20 16:38:00
9:53 AM,27.0,24.1,89,29.87,2.0,East,3.5,-,N/A,,Overcast,90,2013-12-20 16:53:00
10:26 AM,27.0,24.1,89,29.80,3.0,Calm,Calm,-,N/A,,Overcast,0,2013-12-20 17:26:00
10:53 AM,30.0,26.1,85,29.85,3.0,Calm,Calm,-,N/A,,Overcast,0,2013-12-20 17:53:00
11:53 AM,30.0,25.0,82,29.84,4.0,West,6.9,-,N/A,,Haze,260,2013-12-20 18:53:00
12:53 PM,30.0,27.0,88,29.81,5.0,WNW,8.1,-,N/A,,Overcast,300,2013-12-20 19:53:00
1:53 PM,30.0,27.0,88,29.80,6.0,West,4.6,-,N/A,,Clear,280,2013-12-20 20:53:00
2:53 PM,28.9,27.0,92,29.83,7.0,NW,5.8,-,N/A,,Clear,310,2013-12-20 21:53:00
3:53 PM,27.0,24.1,89,29.83,9.0,WNW,9.2,-,N/A,,Clear,300,2013-12-20 22:53:00
4:53 PM,24.1,21.9,91,29.84,5.0,Calm,Calm,-,N/A,,Clear,0,2013-12-20 23:53:00
5:53 PM,19.0,17.1,92,29.87,4.0,NNW,5.8,-,N/A,,Clear,330,2013-12-21 00:53:00
6:53 PM,18.0,17.1,96,29.88,6.0,NE,3.5,-,N/A,,Mostly Cloudy,40,2013-12-21 01:53:00
7:53 PM,21.0,19.0,92,29.88,9.0,ESE,3.5,-,N/A,,Overcast,120,2013-12-21 02:53:00
8:53 PM,21.9,21.0,96,29.86,5.0,East,4.6,-,N/A,,Mostly Cloudy,100,2013-12-21 03:53:00
9:53 PM,18.0,17.1,96,29.86,4.0,ENE,5.8,-,N/A,,Clear,70,2013-12-21 04:53:00
10:00 PM,18.0,16.0,92,29.77,2.5,ENE,5.8,-,N/A,,Clear,70,2013-12-21 05:00:00
10:53 PM,17.1,16.0,96,29.84,2.5,ENE,4.6,-,N/A,,Clear,70,2013-12-21 05:53:00
11:23 PM,17.1,17.1,100,29.75,3.0,ENE,5.8,-,N/A,,Clear,70,2013-12-21 06:23:00
11:36 PM,17.1,17.1,100,29.75,2.5,ENE,5.8,-,N/A,,Clear,70,2013-12-21 06:36:00
11:46 PM,19.9,19.0,96,29.75,3.0,East,5.8,-,N/A,,Clear,80,2013-12-21 06:46:00
11:53 PM,18.0,18.0,100,29.83,3.0,East,4.6,-,N/A,,Clear,80,2013-12-21 06:53:00